ROMMA est une association bénévole à but non lucratif. Votre soutien est indispensable : ADHERER à ROMMA ou FAIRE un DON

Voiron - (38, Isère)

Voironnais (300 m)   Longitude: 05° 35' E   Latitude: 45° 23' N Station partenaire n°109
 

Détail journalier du     <<     >>

Température Precipitation Humidité Pression Vent Dir Rafale Dir. rafale Ensol.
Heure (°C) (mm) (%) (hPa) (km/h) (km/h) (min)
01:00 18.706010202NNO8NNO0
02:00 18.006410202ONO6ONO0
03:00 17.806210204ONO11NNO0
04:00 17.806410204NO15O0
05:00 16.806710203NO8NO0
06:00 17.106710203NE10NE0
07:00 16.106910213ONO8NO0
08:00 17.406710213NO11ONO60
09:00 20.406010213ESE13ESE60
10:00 21.606010214ESE19ESE60
11:00 22.305910219ESE21ESE60
12:00 23.405610219ESE21SE60
13:00 24.4055102110NNO27NNO60
14:00 25.4054102111NNE24NNE60
15:00 26.3052102011NO26NO60
16:00 27.7048102010NNO23NNO60
17:00 28.804210207NO21N60
18:00 28.6044101911NNE23NNE60
19:00 28.5043101910N23NNE60
20:00 28.1043101911N23N60
21:00 27.004710199NO19NNO50
22:00
23:00
minuit

Graphique du 12-07-2020

 

Serveur OMMA